Theta_e
341 340 340 339 340 340 340 339 339 341 341 343 344 344 344 344 346 345 345 344 345 345 344 342 343 343 341 340 340 340 340 339 338 338 339 338 337 335 336 337 336 335 335 335 334 333 332 331 329 328 327 327 327 327 326 325 324 323 323 322 321 322 322 322 320 319 320 320 320 319 319 319 319 319 319 318 318 318 318 319 319 319 320 319 318
341 342 340 339 340 339 339 339 339 341 342 342 344 346 344 346 346 346 344 343 343 345 344 342 341 342 341 340 340 340 339 338 336 334 335 335 333 332 332 332 332 333 332 332 332 331 331 330 330 328 327 326 325 325 324 324 323 322 322 322 321 321 321 321 320 319 320 320 319 319 319 319 318 318 318 318 318 317 318 318 318 318 319 317 318
342 342 342 341 340 339 339 339 340 341 342 343 345 345 346 346 345 344 344 344 344 344 344 342 341 340 341 339 339 339 337 335 332 330 328 331 331 330 328 330 331 331 331 330 330 329 329 328 328 328 327 327 324 323 323 322 322 321 321 320 320 320 320 321 320 319 319 319 319 319 319 319 318 318 318 318 319 317 317 318 318 317 318 317 317
343 343 343 343 342 340 340 341 341 342 343 344 345 345 345 346 345 345 345 345 345 345 343 342 341 340 340 338 339 336 332 330 328 327 326 328 328 330 329 327 329 330 329 329 329 328 328 327 327 327 326 325 324 324 324 323 322 322 321 321 320 319 319 320 320 319 319 318 319 319 318 318 318 318 318 318 317 316 317 317 317 317 317 317 316
345 345 344 344 344 342 341 342 343 344 344 344 345 344 344 344 345 343 341 341 342 342 341 342 340 339 339 338 336 330 327 326 326 325 324 326 326 326 328 327 326 327 328 328 327 327 327 326 325 325 325 324 324 324 323 322 321 321 321 321 320 319 319 319 319 319 319 318 318 318 318 318 317 317 317 318 317 317 317 316 316 316 317 317 316
345 345 345 345 344 342 342 343 343 343 344 344 343 343 343 343 342 339 336 337 338 340 339 339 337 338 338 337 332 328 326 324 325 325 324 324 325 325 323 323 323 324 325 325 326 325 325 325 324 323 322 322 321 321 321 321 322 321 319 319 319 319 319 318 318 318 318 317 317 317 317 317 317 317 316 317 317 316 316 316 317 316 316 316 316
345 346 344 344 343 343 343 343 342 343 343 343 343 342 342 343 340 337 335 336 337 339 339 338 336 337 336 334 329 326 326 325 324 322 322 323 324 322 323 321 321 322 323 322 323 322 322 322 322 322 322 322 322 321 321 320 319 320 319 318 318 318 318 317 317 317 317 317 317 316 316 316 316 316 316 315 316 316 316 315 316 316 315 316 316
345 345 345 345 343 343 343 342 341 341 341 342 343 342 342 341 338 336 333 333 335 338 338 336 336 336 336 331 327 326 325 324 323 321 321 322 320 322 321 321 322 321 321 322 323 322 321 321 320 320 320 320 321 321 320 319 319 319 318 317 316 316 316 317 317 316 316 316 316 316 316 316 316 316 316 315 315 316 317 315 315 316 316 315 315
346 346 346 345 344 344 342 341 342 341 341 342 341 342 342 339 335 335 337 334 335 335 336 335 334 334 333 328 326 326 325 324 323 322 322 320 319 318 320 320 321 320 322 321 323 322 320 320 320 318 317 318 319 319 319 318 318 318 317 316 315 315 315 315 316 317 316 316 316 316 316 315 315 315 316 316 315 315 316 315 315 315 315 315 315
345 345 346 346 344 344 341 340 341 341 341 341 342 342 342 340 334 333 334 335 334 335 334 333 333 330 327 325 325 325 323 323 323 321 319 319 318 318 318 319 318 318 318 319 319 321 321 319 318 317 315 314 315 316 317 315 315 317 316 315 314 314 315 315 315 316 317 316 316 317 316 315 315 315 316 316 315 314 315 315 315 315 315 314 314
345 345 345 344 343 343 341 341 341 341 341 340 340 340 340 339 333 331 332 335 335 335 334 332 330 325 322 322 323 323 322 323 322 320 318 319 317 317 316 317 316 315 316 316 317 318 318 318 316 316 315 312 314 314 314 315 315 314 315 315 314 314 314 314 315 316 317 317 316 316 315 315 315 315 315 316 315 314 315 316 315 315 315 314 313
345 345 345 344 342 342 342 341 341 341 340 339 338 338 338 336 332 330 330 329 331 332 331 329 325 321 320 320 321 320 321 322 322 320 319 319 319 318 316 316 316 316 314 314 314 313 315 316 315 312 313 314 316 315 313 314 315 314 313 314 314 314 314 314 315 316 317 316 315 315 315 314 314 315 315 315 315 314 315 316 315 315 315 314 313
344 344 344 344 343 342 342 341 341 341 341 341 342 340 340 336 331 331 329 328 328 330 329 327 322 318 318 317 317 320 321 322 322 321 318 318 318 316 316 315 315 315 314 315 312 312 313 313 312 312 312 311 311 310 312 312 314 317 313 313 315 315 315 315 316 316 316 315 315 315 314 314 314 314 314 314 314 315 316 316 315 315 314 314 313
344 344 343 344 342 341 341 340 340 341 342 343 343 339 337 333 330 327 330 329 327 328 328 328 324 320 317 314 315 316 318 319 320 321 320 318 317 317 317 316 314 315 315 313 312 310 310 311 312 312 311 312 312 312 313 312 312 313 312 314 316 318 316 316 316 315 315 314 315 315 314 313 313 313 313 313 314 314 315 315 315 314 314 314 313
343 342 342 343 343 342 341 341 340 341 340 340 340 338 336 332 330 327 325 328 327 327 328 331 325 324 323 317 312 310 312 313 316 318 319 318 316 315 314 313 312 313 314 313 312 312 309 310 311 313 315 314 312 313 313 310 312 316 314 315 318 317 315 314 314 314 314 314 314 314 312 311 311 311 312 312 313 314 314 314 314 314 313 313 313
343 343 343 344 344 342 342 341 340 341 341 339 338 337 336 333 331 330 328 323 323 323 326 326 324 321 316 317 314 314 310 310 311 314 316 316 315 314 315 313 312 312 314 311 310 312 312 311 312 315 315 315 314 313 312 311 311 312 314 318 317 314 313 313 314 313 314 313 313 313 311 311 311 312 312 312 313 314 314 314 314 314 313 313 314
343 343 344 344 343 343 342 343 341 341 342 340 339 339 336 334 333 331 328 326 322 323 322 327 324 329 323 315 312 311 316 316 311 311 313 311 312 315 315 314 313 312 312 311 311 312 311 310 315 314 315 315 317 314 312 311 313 314 315 316 314 312 311 312 313 312 313 312 313 312 311 311 312 312 313 313 314 314 314 314 314 314 314 314 314
342 342 343 343 342 343 344 342 342 341 340 340 340 339 337 334 333 332 330 332 327 322 320 324 326 326 328 329 328 321 319 313 312 308 313 314 313 312 313 315 314 313 312 310 309 309 311 312 314 314 315 316 313 313 312 313 314 314 317 314 312 312 310 310 310 310 312 312 312 312 312 312 312 313 313 314 314 314 314 314 313 313 313 313 314
341 342 343 343 343 343 343 342 342 341 340 340 339 338 337 335 334 332 332 331 329 322 322 321 325 325 325 328 328 327 325 314 312 313 308 310 310 312 313 312 314 313 310 310 310 311 311 311 312 312 313 313 313 313 313 312 312 315 314 311 311 310 310 309 309 310 311 311 312 312 312 313 313 313 314 314 313 313 313 312 312 312 312 313 313
341 342 343 343 343 342 342 342 340 340 337 337 338 339 338 337 335 334 333 332 330 327 325 323 322 322 325 324 324 324 325 322 322 319 319 311 308 311 313 314 314 313 313 311 310 311 313 313 310 310 311 310 311 311 312 311 311 313 312 310 310 310 310 309 307 308 310 311 312 312 312 313 313 313 314 313 312 312 312 311 312 312 312 313 313
342 342 342 342 341 340 340 340 340 338 336 337 338 337 338 336 334 333 333 331 331 331 330 325 325 326 323 323 323 321 319 321 322 322 320 319 314 308 308 312 313 314 313 313 312 313 311 311 310 310 312 312 312 311 311 312 311 311 309 310 309 309 309 308 307 308 308 309 310 311 312 313 313 313 313 312 311 311 311 311 311 312 313 313 312
340 342 342 342 341 340 338 339 339 337 335 336 336 336 336 335 336 335 335 333 333 331 330 330 328 329 327 325 321 320 320 319 319 318 317 319 317 310 311 308 306 310 313 312 312 311 311 311 311 309 310 311 311 311 311 312 310 308 309 308 308 308 308 308 307 308 307 307 308 309 311 311 312 313 312 311 311 310 310 311 311 312 312 312 311
339 340 341 340 340 339 338 338 339 337 334 334 334 333 334 334 335 335 335 334 332 331 330 331 330 329 327 326 324 322 322 321 320 319 321 318 316 315 312 310 308 309 310 311 311 310 309 311 309 309 310 310 310 310 311 311 308 306 305 306 307 307 307 308 307 309 308 308 307 308 309 311 311 311 311 310 309 310 310 311 312 311 311 311 311
338 338 339 338 338 337 337 336 335 336 334 334 334 334 334 333 331 331 332 333 334 331 331 329 329 329 328 327 326 326 326 325 326 323 322 321 320 317 313 309 307 309 308 310 309 308 308 308 307 308 309 308 308 310 309 311 309 307 307 305 305 306 307 307 307 309 309 308 307 308 310 310 310 310 310 309 309 310 311 311 311 311 311 311 310
335 337 338 337 337 336 335 334 334 334 334 332 332 331 331 330 329 329 330 329 329 331 329 330 329 328 327 328 327 327 326 328 328 325 324 324 321 316 311 310 307 306 305 306 304 306 306 306 306 307 307 307 307 309 310 309 308 307 307 310 304 305 305 307 308 308 308 307 307 307 309 308 309 310 309 309 310 311 311 311 310 309 309 309 310
336 337 336 335 334 334 333 333 334 333 331 331 329 328 329 327 328 327 326 328 328 330 330 330 329 329 330 327 325 324 324 325 325 324 323 320 318 317 311 308 310 306 305 305 304 302 302 304 305 306 306 307 307 308 309 308 310 307 306 307 308 304 304 306 307 307 307 306 306 307 307 308 308 309 309 309 310 310 310 309 309 308 308 308 308
337 338 334 333 333 332 332 333 332 331 329 328 327 327 327 325 325 326 325 324 324 325 326 327 325 325 324 324 324 323 322 321 320 321 322 321 320 318 312 307 305 306 303 304 303 304 303 303 304 304 306 308 308 308 308 308 307 307 306 309 309 308 305 305 306 306 306 306 306 306 306 306 307 307 307 308 309 308 309 309 308 308 308 307 307
338 337 332 332 332 331 331 331 330 329 328 327 326 325 324 324 323 323 322 319 322 321 322 322 323 323 323 322 321 319 319 317 317 319 318 321 320 319 315 312 307 303 305 303 303 303 304 304 303 303 304 305 306 307 305 307 309 307 309 308 309 309 307 305 304 305 305 305 305 305 305 306 306 306 306 307 308 309 309 308 308 308 307 306 307
337 334 331 331 332 331 330 329 328 327 327 326 325 325 324 324 323 321 321 319 319 319 319 319 320 319 319 318 319 317 315 316 315 316 317 317 317 317 316 314 312 307 303 303 303 303 302 305 303 301 303 303 305 307 307 306 307 308 309 308 309 309 306 305 304 303 303 303 304 304 305 305 306 306 306 307 309 309 308 307 307 306 306 306 307
335 332 331 330 330 329 329 327 326 326 326 324 323 323 323 322 322 321 320 319 318 317 317 317 317 317 316 315 316 313 314 314 314 315 315 316 315 315 315 315 315 310 309 305 305 306 303 303 303 300 301 302 304 306 307 306 305 309 308 308 308 308 305 305 303 302 302 302 303 302 304 304 305 305 306 307 308 307 307 307 306 305 305 305 306
333 330 329 328 328 328 327 325 325 324 324 323 322 322 322 320 319 318 317 317 316 316 316 316 315 315 314 314 314 312 313 313 313 313 313 313 314 313 313 313 314 314 312 308 305 305 307 303 301 302 301 303 303 306 305 305 306 308 308 308 306 306 306 307 304 303 303 302 302 303 304 304 304 304 305 306 307 306 306 306 305 304 304 304 304
332 329 328 326 327 326 325 324 323 323 322 321 321 321 321 320 318 317 316 315 315 315 313 314 313 314 313 312 312 311 312 311 311 311 310 311 313 311 311 311 312 315 313 309 306 305 305 303 303 301 302 305 305 304 304 304 306 308 307 307 308 308 307 307 305 304 303 301 301 301 302 302 302 303 304 305 305 305 305 304 303 303 303 303 303
331 328 327 326 325 325 323 322 322 321 321 320 320 319 319 318 317 317 315 314 313 314 313 312 311 313 312 310 311 311 312 311 310 310 308 309 310 310 310 310 310 312 311 309 307 303 303 305 304 303 304 305 302 303 303 304 305 306 306 307 308 308 307 307 307 305 303 302 301 301 300 300 301 303 304 303 303 303 303 301 301 301 302 302 301
329 327 326 326 325 323 322 321 321 320 320 319 318 318 317 316 316 315 314 313 313 313 312 310 311 312 313 310 309 310 311 310 310 307 307 307 307 306 307 308 308 310 313 309 306 303 300 301 301 302 303 304 301 303 304 304 305 306 305 305 306 306 306 307 306 307 303 302 301 300 300 300 300 300 300 300 300 299 300 299 299 299 301 301 298
328 327 326 325 323 322 322 321 320 319 319 318 317 316 315 315 314 314 314 313 313 312 311 311 309 311 311 311 310 310 311 310 310 310 310 308 307 306 306 307 308 308 308 309 306 303 301 300 303 301 303 303 304 302 303 304 305 304 303 304 305 307 307 307 307 307 303 301 300 300 300 300 300 300 299 299 299 299 299 299 299 299 299 299 298
327 326 325 323 322 321 321 319 319 318 318 317 315 315 314 315 314 313 313 313 313 313 311 310 309 309 310 310 310 310 310 309 308 308 308 308 307 305 306 307 307 307 307 308 308 305 303 299 300 300 302 302 302 303 303 304 304 305 304 304 306 306 307 306 307 307 305 302 301 301 300 300 300 300 299 299 299 299 299 298 299 298 299 298 298
327 325 323 321 320 320 320 319 318 317 316 315 313 314 315 316 315 314 312 312 313 312 312 311 310 310 310 310 309 310 310 308 308 306 307 307 306 306 305 305 305 306 306 306 306 306 303 302 301 303 303 302 303 303 303 302 303 303 305 305 304 305 307 308 309 308 305 304 302 302 301 301 300 300 300 300 299 299 299 298 299 299 299 299 299
326 324 321 320 319 319 320 319 318 317 315 314 313 313 314 315 315 314 313 312 312 311 311 311 310 311 310 310 309 309 309 308 307 307 307 307 306 305 304 304 304 306 306 306 306 305 304 302 302 300 303 302 302 303 303 303 303 302 303 304 306 306 306 306 307 307 308 308 308 308 304 303 302 301 301 300 299 298 299 299 299 299 299 300 299
325 323 321 319 319 320 319 318 317 316 314 313 313 313 313 314 314 313 312 312 311 311 311 310 310 310 310 310 310 309 309 309 308 307 307 307 306 305 305 306 305 305 305 304 303 303 303 302 302 303 302 302 304 302 302 304 304 302 302 302 302 304 305 305 305 307 308 307 306 303 303 303 303 304 302 299 299 300 300 300 300 300 300 300 298
324 323 320 319 319 320 319 318 317 315 313 312 313 314 314 314 313 313 312 311 310 310 311 310 310 310 310 310 309 309 309 309 308 308 307 306 306 305 306 306 306 305 304 304 303 302 302 301 300 300 302 302 301 303 303 304 304 304 304 302 300 301 303 305 306 305 306 305 305 306 305 304 304 304 302 302 303 302 301 302 303 302 302 300 298
325 323 321 320 319 318 318 317 315 314 312 312 313 314 314 313 313 312 311 310 310 309 309 309 310 309 309 310 309 309 310 308 307 306 307 306 305 304 305 306 306 306 305 304 303 302 301 301 301 302 300 300 301 302 301 301 300 300 303 304 303 304 303 303 304 306 305 304 305 305 306 307 306 306 307 307 307 306 306 303 304 303 301 299 297
323 322 321 320 318 318 316 315 314 313 312 313 310 307 308 312 312 311 311 311 310 309 309 309 309 309 309 309 310 307 306 305 302 300 299 301 304 305 305 307 306 306 305 303 302 301 301 300 300 300 300 300 300 302 301 302 303 304 304 305 302 302 304 303 304 305 306 304 303 303 304 307 307 306 306 305 307 308 307 307 306 303 300 297 297
322 320 320 318 318 317 316 314 313 312 312 312 302 299 300 303 310 311 311 310 310 310 309 309 308 309 309 308 309 307 306 304 303 297 297 296 297 298 300 303 307 307 305 303 302 303 301 301 302 301 300 300 301 302 302 302 303 303 302 303 302 302 301 299 297 302 309 305 303 302 303 307 307 305 305 306 307 307 308 307 301 299 298 298 297
321 320 319 317 317 317 316 314 313 312 312 306 297 297 298 299 304 310 311 310 310 310 309 309 309 309 308 308 309 309 309 308 306 302 299 296 295 295 295 296 296 297 299 306 305 303 303 302 301 301 301 301 301 302 302 302 302 303 304 304 303 301 301 299 300 299 304 308 303 302 302 305 306 305 304 305 307 308 307 303 300 299 298 297 297
321 318 318 317 317 317 316 314 313 312 313 300 296 296 297 297 299 306 310 311 310 310 310 309 308 308 308 307 308 310 310 307 305 305 304 301 297 295 295 296 295 294 293 292 295 308 306 303 302 302 302 302 301 302 303 304 305 303 302 301 302 302 303 302 300 300 304 307 304 301 299 303 304 303 302 305 305 307 307 303 301 299 298 297 297
319 318 318 318 318 316 315 314 313 313 313 300 296 296 296 296 296 301 310 310 310 310 309 309 309 309 308 307 306 308 309 307 307 306 305 303 302 301 301 302 302 301 296 292 292 291 300 306 304 302 304 305 302 304 306 306 304 302 302 301 303 302 302 301 304 305 307 307 303 301 300 300 303 303 302 303 305 306 307 303 299 299 298 297 297
319 317 317 318 318 316 315 314 314 312 312 297 295 295 295 295 295 300 311 310 310 310 310 310 310 309 309 308 308 308 308 307 306 305 304 303 303 303 302 302 303 305 306 306 305 306 305 306 306 306 306 307 307 307 307 307 306 306 306 305 305 304 304 306 307 309 306 308 306 303 297 300 303 301 302 303 304 304 306 302 300 299 298 298 297
320 319 319 319 317 316 316 315 314 312 310 295 295 295 295 295 295 307 310 309 309 309 310 310 309 309 309 309 308 308 307 307 302 296 300 304 302 302 301 302 302 304 307 308 299 301 308 308 308 307 307 309 299 307 307 306 306 307 305 305 305 305 303 301 299 302 301 306 307 302 299 299 303 301 302 304 304 303 305 306 301 300 299 298 297
318 317 317 318 319 316 314 313 313 312 306 296 294 294 294 294 298 308 308 307 308 308 309 309 308 308 308 308 308 307 306 306 298 293 294 299 303 302 301 301 301 302 304 308 294 290 292 293 293 292 291 291 291 291 291 291 298 302 304 302 303 304 300 298 299 299 300 302 307 304 301 299 302 301 301 303 303 302 304 305 307 301 300 298 297
317 318 318 318 319 317 314 313 311 308 305 298 294 294 294 294 301 307 307 307 307 307 308 308 308 307 307 307 307 307 305 305 293 292 292 299 303 302 301 300 300 301 304 307 305 303 292 292 292 291 291 291 291 291 291 291 291 295 303 301 303 302 300 299 297 299 300 302 304 304 300 299 301 302 300 302 302 303 303 304 305 304 301 300 299
318 319 318 318 318 317 315 311 308 309 307 300 294 294 294 294 301 308 306 306 306 307 307 306 307 306 306 306 305 305 306 303 291 292 292 299 303 302 301 301 300 301 303 306 304 304 304 304 304 303 301 298 301 304 305 294 293 296 304 305 305 303 299 299 299 299 297 299 305 306 299 299 300 301 301 299 298 301 304 303 304 305 306 306 305
Wind_Speed
5 6 6 5 5 4 4 4 3 1 1 2 2 3 3 3 3 3 3 3 4 5 5 6 6 6 6 7 7 7 7 7 6 6 5 6 6 8 11 12 13 13 13 14 14 14 14 14 13 13 13 13 13 13 12 12 12 12 12 12 12 11 12 13 13 13 12 12 13 13 12 13 13 13 12 12 12 14 14 13 14 14 15 15 14
5 5 5 5 5 5 4 4 3 2 2 3 3 3 2 2 3 3 4 4 5 5 5 6 6 6 7 7 7 7 7 6 6 6 6 6 6 8 12 13 13 12 12 13 13 13 13 12 13 13 13 13 13 12 12 12 12 12 12 11 11 11 11 12 13 13 12 11 12 12 12 12 12 12 11 11 13 14 12 13 14 14 14 13 13
4 5 5 5 5 5 4 3 3 3 3 3 3 2 2 2 2 3 3 4 4 5 5 6 6 6 7 7 7 7 6 5 6 6 6 5 5 6 10 13 12 12 12 12 13 12 12 12 11 11 12 12 12 12 12 12 12 11 11 11 10 10 10 11 12 11 11 11 11 11 11 11 11 11 11 11 13 11 10 13 13 13 13 14 14
5 5 5 5 5 5 4 4 4 4 4 4 3 3 2 2 1 2 3 3 4 4 5 5 6 6 7 7 7 6 6 6 6 6 6 6 5 5 6 9 12 11 11 11 11 12 11 11 11 11 11 11 11 11 12 11 11 11 10 10 10 10 10 9 9 10 10 10 10 10 11 11 10 10 10 10 11 10 11 11 11 12 12 12 12
5 6 6 5 5 5 5 5 5 5 4 4 3 3 3 3 2 2 3 3 4 5 5 5 5 6 6 7 7 7 6 6 5 6 6 6 5 5 5 6 8 11 11 10 10 10 11 11 11 11 11 11 10 10 10 10 10 10 9 9 9 9 8 8 8 8 8 9 9 9 9 9 10 10 10 10 11 10 10 9 10 10 11 12 12
6 6 5 5 5 5 5 5 5 5 4 4 4 3 4 4 4 4 4 4 4 5 5 5 6 6 7 7 6 6 6 6 5 5 5 6 5 5 5 4 4 5 7 10 10 9 9 9 10 10 10 10 9 9 9 9 8 9 9 8 8 8 7 7 7 7 7 7 8 8 8 8 8 9 9 10 10 9 9 10 10 11 11 10 12
7 6 6 5 5 5 5 5 5 5 4 4 4 4 4 4 4 4 4 3 4 5 6 6 7 7 8 6 6 6 5 6 5 6 6 5 5 5 5 4 4 4 5 6 8 9 9 9 8 7 8 8 8 8 8 8 8 7 7 8 7 7 6 6 6 7 6 6 6 7 8 7 8 8 8 9 9 8 7 9 9 9 8 10 12
7 7 6 6 6 5 5 5 6 5 5 4 5 5 4 4 4 4 5 4 5 5 5 6 6 7 8 5 6 6 5 5 5 6 5 4 5 5 4 4 4 4 4 4 5 7 8 8 7 7 6 6 6 6 7 7 7 7 6 6 7 6 6 5 5 6 7 6 6 6 7 7 7 8 8 7 9 9 9 9 9 9 10 10 10
7 7 6 6 6 6 5 6 6 5 5 5 5 5 5 4 4 3 3 5 5 6 6 6 7 7 6 6 6 5 5 4 5 5 5 5 5 5 4 4 5 5 4 4 4 5 7 6 6 6 5 5 5 5 6 6 6 6 6 5 6 6 6 5 6 6 6 7 8 7 7 7 7 7 8 7 8 9 8 9 10 10 9 10 10
8 8 6 6 6 6 6 6 6 5 5 5 5 4 4 5 5 3 3 5 5 6 7 7 7 7 5 6 5 4 4 4 4 5 5 5 5 4 4 4 4 4 4 3 4 3 4 5 5 5 4 4 4 4 4 6 6 6 5 5 5 6 6 6 5 6 7 8 9 9 9 9 9 9 9 8 9 10 9 8 8 9 8 9 9
8 8 7 7 6 6 6 7 6 6 5 6 6 5 5 5 5 5 2 2 4 5 7 8 8 6 5 5 5 5 3 4 4 4 4 5 5 4 4 4 4 4 4 4 3 3 3 3 4 4 4 5 6 5 4 5 7 5 4 5 5 5 6 6 6 7 8 9 9 10 9 9 10 10 10 10 10 10 11 10 8 9 9 9 7
8 8 7 7 6 6 6 6 6 6 6 7 7 7 7 7 6 7 6 5 4 6 8 9 8 7 6 5 4 4 3 3 4 4 4 5 4 4 4 4 4 4 4 4 3 3 4 4 3 3 4 4 5 5 5 6 7 6 4 4 5 6 6 7 7 8 8 9 10 10 10 10 10 10 11 11 11 11 12 11 8 8 9 10 7
9 8 8 7 6 6 6 6 7 7 7 8 6 8 7 7 6 5 8 7 5 6 8 9 10 7 5 5 4 3 2 3 4 4 4 4 4 4 4 4 4 4 4 3 4 4 4 4 4 3 2 3 3 2 2 4 5 7 5 6 7 8 7 7 7 8 9 10 10 10 10 10 11 11 11 12 12 12 12 11 9 9 9 10 8
9 9 8 8 7 6 7 7 8 8 7 6 6 7 7 7 7 6 4 7 6 8 8 9 6 8 8 5 4 3 2 2 3 3 4 4 4 4 4 4 5 4 4 4 4 4 4 4 3 2 2 1 1 1 0 0 2 5 6 8 8 8 7 7 7 8 9 10 11 11 11 11 12 12 12 12 13 13 12 10 10 10 10 10 10
9 9 9 8 8 7 7 7 8 8 8 7 7 8 7 9 9 7 6 3 5 6 9 4 4 6 6 7 5 5 3 2 2 3 4 4 4 5 5 5 6 5 5 4 4 3 3 3 3 1 0 1 1 0 0 0 4 6 8 7 7 7 6 7 8 9 10 11 11 11 11 12 13 13 13 13 13 12 11 11 11 11 11 11 11
10 10 9 9 9 8 8 8 8 8 7 7 9 9 7 8 8 7 8 7 5 7 5 1 3 9 7 4 4 4 4 6 6 4 4 5 6 6 5 5 5 5 4 4 4 3 3 3 2 1 1 1 1 1 0 1 4 4 6 7 6 7 8 8 8 9 10 11 12 12 12 13 13 13 13 13 12 12 12 12 12 11 11 12 13
10 10 10 9 9 9 8 7 8 9 7 8 8 8 8 8 9 8 9 8 7 6 6 3 6 2 3 5 3 4 5 3 7 4 5 6 7 6 5 6 6 6 5 5 3 3 3 3 1 1 1 1 1 0 1 1 1 2 2 6 7 8 9 9 10 10 11 12 13 13 13 13 13 12 13 12 12 12 12 13 14 14 14 13 14
10 10 11 10 10 9 7 7 7 6 6 7 7 6 7 8 8 8 9 7 7 7 7 4 4 2 3 3 3 3 3 5 6 4 5 5 5 7 6 6 6 6 6 5 5 3 3 2 2 2 1 1 1 1 1 2 2 2 3 5 7 8 8 9 10 11 11 12 13 13 13 13 13 12 12 12 12 12 13 13 14 15 15 15 16
10 10 11 10 9 7 8 7 7 7 6 6 6 8 7 8 7 7 7 6 6 7 9 7 3 4 3 2 2 1 4 8 5 4 5 5 5 6 6 6 5 6 6 6 5 3 2 2 2 2 2 2 2 1 1 3 5 5 8 7 7 7 7 8 10 11 11 12 12 13 13 13 13 12 12 12 12 12 13 13 14 15 15 16 16
10 10 11 10 8 8 8 7 7 7 7 7 7 7 6 5 7 6 5 5 7 7 8 8 9 7 6 4 2 2 4 1 5 6 4 5 7 5 5 5 4 4 3 4 4 4 3 2 3 3 3 3 2 1 2 2 3 3 5 7 7 7 7 8 8 9 10 11 12 13 13 13 13 13 12 12 12 12 13 14 14 15 15 16 16
10 11 11 10 8 8 9 8 8 8 7 7 7 7 8 7 7 6 6 6 6 6 6 7 8 7 7 5 4 4 4 1 1 2 5 7 4 8 7 6 4 4 3 2 2 3 3 3 3 3 4 3 2 2 2 2 3 4 6 7 7 7 7 8 8 8 9 10 12 12 12 13 13 13 12 12 13 13 14 14 14 15 15 16 17
10 11 10 9 8 8 9 10 9 8 8 8 6 6 6 6 7 7 7 7 5 6 7 6 7 6 7 6 7 4 4 4 4 4 1 4 6 5 8 9 8 6 4 4 4 4 4 4 4 4 3 2 2 2 2 3 3 3 5 7 7 7 7 8 8 7 8 10 11 12 12 13 13 13 13 13 14 14 14 15 15 16 16 17 18
9 9 10 8 8 8 8 9 8 7 7 7 7 7 6 6 5 6 6 8 6 7 6 6 5 6 8 7 8 8 7 7 6 6 6 4 4 4 5 7 6 6 4 4 4 5 4 4 3 3 3 2 2 2 2 3 5 5 4 6 7 8 8 8 8 7 8 9 11 11 12 12 13 13 13 14 14 15 15 16 16 17 17 18 18
9 9 10 8 8 7 8 8 7 7 7 6 6 6 5 4 4 5 5 6 5 6 6 7 7 6 7 7 8 7 8 8 7 6 6 7 6 5 4 5 3 4 6 5 5 5 4 4 3 3 3 3 2 2 2 1 5 7 4 5 6 7 9 9 9 8 7 7 10 11 12 13 13 14 14 14 15 15 15 16 16 16 17 18 18
10 11 11 10 8 8 8 7 6 6 6 6 5 5 5 5 5 6 5 6 6 7 6 7 7 7 7 7 7 7 8 6 4 5 5 5 6 4 3 3 4 5 6 7 5 4 3 4 3 3 3 3 2 1 2 2 3 6 6 2 4 6 8 9 10 9 8 8 9 11 12 13 14 14 14 15 15 15 16 16 16 15 16 16 18
12 12 9 10 9 8 8 7 7 6 6 6 5 5 5 5 5 5 5 4 4 6 6 7 6 7 5 5 6 6 6 3 4 4 4 5 6 6 5 3 3 5 5 5 6 6 4 3 3 3 3 2 2 2 1 2 2 6 6 4 2 4 6 8 9 10 11 11 10 11 12 13 14 14 15 15 15 15 15 15 15 16 16 16 17
12 9 9 9 8 8 8 8 7 7 6 6 5 5 5 4 4 4 3 3 3 4 4 5 5 6 5 5 5 4 3 3 3 5 5 6 6 6 7 7 4 4 5 5 6 5 5 4 3 3 3 2 1 1 2 2 2 3 6 2 3 1 4 7 9 11 11 11 11 11 11 12 13 14 14 15 15 15 15 16 17 17 17 17 18
8 8 9 9 10 10 9 8 7 7 7 7 7 6 6 5 4 4 4 2 3 4 4 4 5 5 5 4 4 4 2 2 3 3 3 3 4 5 7 7 7 6 5 5 6 5 4 4 4 2 2 2 1 1 0 2 2 5 4 3 4 4 6 8 9 10 11 11 11 11 12 11 12 13 14 14 15 16 16 17 17 17 17 18 19
7 8 10 9 9 9 9 8 7 7 7 7 7 6 6 5 5 5 4 4 3 4 3 4 4 4 3 5 4 3 3 2 2 2 2 2 3 5 7 7 7 7 7 7 7 5 5 4 4 4 2 2 1 1 0 1 3 5 3 3 4 5 8 8 7 8 9 9 11 11 12 12 14 14 15 15 16 16 17 17 17 17 18 18 19
8 7 9 10 8 9 8 8 7 7 7 7 7 7 6 5 5 4 4 4 4 3 3 3 4 4 4 4 4 4 3 3 3 2 2 2 3 4 6 5 6 8 6 7 5 4 5 3 1 3 3 3 2 1 0 1 3 5 3 4 4 6 9 7 6 7 8 9 10 10 11 12 13 15 15 16 16 16 16 17 17 17 18 19 19
8 8 9 9 8 8 8 8 7 8 7 7 7 6 7 5 5 4 4 5 4 4 3 4 4 5 6 6 4 4 4 4 3 3 2 2 2 3 3 2 4 6 6 6 5 3 2 5 3 2 3 3 2 1 1 1 2 4 3 4 5 7 9 4 5 7 8 9 10 11 12 12 12 13 14 15 16 17 17 17 17 17 18 18 17
9 10 10 10 10 10 8 8 8 8 8 7 7 7 6 6 6 5 5 6 6 5 5 4 4 5 7 7 6 5 5 4 4 4 3 2 2 3 3 4 3 3 5 5 6 5 3 3 4 4 4 3 1 1 0 1 1 3 5 4 5 5 5 5 4 5 7 9 10 11 11 11 11 12 13 14 15 16 17 17 16 16 16 15 16
10 11 11 11 11 10 10 10 10 9 9 8 7 7 7 7 5 6 6 7 7 5 6 6 5 6 6 7 6 6 5 6 5 4 4 4 3 3 2 3 4 4 5 5 5 7 4 2 2 3 3 2 3 0 1 1 3 4 5 5 5 5 5 5 5 4 5 8 10 11 11 12 12 13 14 14 14 15 15 15 14 14 14 15 16
12 12 12 10 10 11 10 10 10 10 10 9 8 7 7 7 6 4 6 7 7 7 6 7 7 5 6 7 7 6 5 6 6 6 5 5 4 4 4 4 4 5 4 5 5 6 7 4 4 4 4 3 2 2 2 3 3 4 5 5 5 5 5 5 5 5 5 8 10 11 12 12 12 13 13 13 14 14 14 14 15 15 15 15 16
11 11 12 11 12 11 10 10 10 10 10 9 8 8 7 8 8 6 6 7 7 7 7 7 8 6 7 7 7 6 5 6 5 5 4 4 4 4 4 3 4 5 4 4 6 6 7 6 4 5 4 3 0 2 1 1 2 4 5 5 5 4 4 4 5 5 4 7 9 11 11 12 13 13 13 13 13 13 14 14 15 15 15 15 16
11 10 10 12 11 12 11 11 11 10 10 8 8 8 9 9 8 8 8 7 7 7 8 8 8 8 8 7 7 7 7 7 6 5 4 4 4 4 5 4 4 5 4 4 4 6 6 7 5 4 4 3 3 2 1 1 2 3 4 5 5 4 5 5 5 5 6 9 10 10 11 11 12 12 12 13 13 13 14 14 15 16 16 16 16
12 11 10 10 11 12 11 12 12 11 10 10 9 9 8 8 9 8 8 8 7 8 7 8 8 8 8 8 8 8 8 7 6 5 5 5 4 4 4 4 4 4 4 4 4 5 6 6 6 3 3 3 2 1 1 2 2 2 3 4 6 6 5 4 4 4 6 9 10 9 9 10 11 10 11 12 13 13 14 15 15 16 16 16 16
11 11 12 11 11 12 12 12 12 11 10 10 10 10 10 9 8 7 7 8 8 8 7 8 8 8 8 8 8 8 8 8 7 6 6 6 4 4 5 5 5 5 5 5 4 5 5 5 6 5 3 3 3 1 1 1 2 3 3 4 4 5 7 6 5 4 4 5 6 7 7 8 10 12 11 12 13 13 13 14 15 15 15 15 16
12 12 12 12 11 12 12 11 11 11 11 10 9 9 9 9 9 8 7 8 8 7 7 8 8 8 8 8 8 8 8 8 8 7 7 6 5 5 5 5 5 6 5 5 5 6 5 5 4 3 4 3 1 2 2 0 2 2 3 4 4 4 5 7 7 5 4 6 8 7 8 8 9 9 11 13 13 12 13 14 15 15 14 14 15
13 13 13 13 11 11 11 11 10 10 9 9 9 9 9 9 8 8 8 8 8 7 7 7 7 7 8 7 8 8 8 7 8 7 7 6 5 6 5 5 5 6 5 5 5 5 5 5 5 5 3 3 4 2 1 2 3 2 0 3 5 6 6 6 5 7 7 7 8 8 8 8 9 10 11 11 10 10 14 13 14 13 12 13 16
11 13 13 13 12 12 11 10 11 9 9 9 8 9 9 10 9 9 9 9 9 8 8 7 7 7 7 7 7 7 6 6 8 8 8 7 6 6 6 6 6 6 6 5 5 5 5 5 5 4 4 4 3 3 2 1 1 2 3 2 4 4 5 6 5 4 5 7 8 8 7 7 8 9 8 9 9 11 12 12 11 10 13 16 17
11 11 12 12 13 13 13 11 10 8 7 6 10 15 13 10 10 8 8 9 10 9 9 8 7 8 8 6 5 7 7 8 9 9 8 8 7 7 8 7 7 6 6 6 5 5 5 6 6 6 5 5 4 3 1 1 1 2 3 3 4 5 5 5 4 3 3 5 7 8 9 7 7 8 9 9 9 9 9 10 10 12 15 17 16
12 11 11 13 12 11 13 13 12 9 8 8 16 16 15 14 11 10 10 9 10 9 9 9 9 8 6 6 6 7 8 8 8 9 9 8 6 6 7 6 5 6 7 6 5 6 6 5 5 5 5 4 4 3 3 2 2 2 2 2 3 4 5 7 7 5 3 4 6 7 8 8 7 9 10 9 9 9 9 10 14 16 15 16 17
10 11 12 13 12 12 11 12 11 10 9 13 18 17 16 16 12 10 9 9 9 9 9 10 8 8 8 7 6 6 7 8 8 7 7 7 8 9 8 6 4 1 3 0 5 6 6 5 6 6 5 5 4 4 3 3 2 2 2 3 3 3 5 6 6 7 5 3 6 6 8 8 7 8 10 10 9 9 9 13 16 14 15 16 16
10 12 14 13 12 12 12 13 12 10 9 16 18 18 17 17 15 12 9 9 10 9 9 10 10 9 8 8 7 6 6 10 9 8 8 7 7 9 9 6 3 3 2 2 6 2 5 5 6 6 6 4 5 4 3 2 1 3 3 3 3 4 4 5 6 7 6 4 5 6 9 9 8 9 10 10 11 10 10 10 13 16 16 15 16
10 11 12 14 13 13 13 12 11 10 10 17 19 19 17 17 16 12 9 10 9 10 10 10 9 10 10 9 9 8 7 8 8 9 9 8 8 6 6 5 5 5 4 4 4 2 4 5 6 6 6 4 4 3 3 2 3 3 3 3 4 5 5 6 8 8 7 2 4 5 7 9 9 9 10 10 11 11 10 12 15 15 15 15 16
13 13 13 13 12 13 13 12 11 10 9 19 19 19 18 18 17 11 8 8 8 9 9 9 9 10 10 9 10 9 9 9 7 9 9 9 9 7 6 5 5 6 6 6 7 6 5 5 5 5 3 5 4 2 2 3 4 4 4 5 5 6 7 8 9 6 6 3 2 3 8 10 9 10 9 11 11 11 11 12 12 13 14 15 16
9 8 10 12 13 13 13 13 11 11 9 21 20 20 19 18 18 9 8 9 9 9 9 9 9 9 10 9 9 9 9 8 9 12 10 8 8 7 6 6 6 5 5 2 2 2 4 5 5 5 3 1 3 3 3 2 3 3 4 5 5 6 6 6 7 6 8 2 3 3 7 10 9 9 10 10 10 11 12 10 11 11 13 16 16
12 9 11 12 11 12 12 10 10 9 9 17 20 20 19 19 15 9 9 8 8 9 9 9 9 8 8 10 9 8 9 9 12 13 12 11 9 8 7 7 6 5 7 4 4 4 5 5 6 6 7 6 5 6 6 5 5 4 4 5 5 3 6 7 7 7 8 9 1 1 6 9 9 10 10 9 10 11 11 11 10 12 14 15 15
12 10 11 11 11 11 13 13 13 14 10 15 22 21 21 21 16 11 10 9 9 9 8 8 7 7 8 11 11 9 9 9 14 14 14 11 9 8 8 8 7 7 7 4 3 3 4 4 5 7 7 7 7 8 9 8 7 6 5 5 4 4 6 7 8 8 8 8 2 1 6 9 11 9 10 9 10 8 10 11 12 12 13 12 12
13 12 10 11 9 9 9 12 18 14 8 12 18 20 22 22 16 9 10 9 9 9 9 8 7 7 7 9 12 10 11 11 16 15 15 12 9 9 9 8 8 8 7 7 6 6 5 5 5 5 6 8 7 7 6 8 8 9 8 7 4 5 6 7 8 8 8 8 3 1 7 9 9 9 9 9 9 9 9 11 12 11 11 10 12
Wind_Direction
169 176 180 184 181 184 185 185 192 202 195 158 157 138 144 161 150 165 170 164 148 147 142 143 146 144 138 136 136 133 129 130 125 117 108 104 98 89 87 85 84 85 89 91 93 96 99 101 99 96 93 90 87 86 87 84 80 76 76 74 70 64 66 69 64 58 57 54 49 48 46 46 41 37 29 30 36 30 22 22 25 21 25 22 17
164 166 176 181 182 180 182 186 192 190 189 173 157 171 173 179 170 172 175 170 165 150 147 148 151 146 145 141 140 135 134 129 126 118 111 105 101 96 85 84 82 85 89 94 94 98 99 102 103 100 96 93 91 90 88 84 83 79 74 72 70 65 64 69 65 59 56 53 52 45 44 46 41 34 28 28 34 28 19 22 24 21 21 17 16
163 163 174 175 176 177 185 179 184 179 186 177 167 185 197 216 195 176 175 173 160 152 156 153 151 150 148 146 140 139 130 123 121 117 113 108 106 101 90 82 85 87 90 95 99 98 98 98 97 97 98 99 97 94 90 86 83 80 76 73 69 66 62 66 69 62 56 52 51 49 41 42 42 32 26 21 38 18 22 29 24 22 19 18 19
171 171 182 179 177 181 179 184 174 176 185 185 170 177 203 207 178 169 170 173 150 148 163 157 155 151 151 144 143 137 128 126 123 118 113 107 106 98 93 94 87 91 95 98 101 101 102 102 103 104 102 102 101 97 92 87 84 81 82 79 74 70 65 63 69 68 61 56 51 50 43 38 38 29 21 18 33 20 20 26 23 22 18 15 15
181 189 192 192 182 178 181 187 181 177 179 184 173 170 184 182 167 145 149 152 154 148 167 151 155 151 151 147 142 130 128 126 118 115 113 109 102 100 101 101 102 93 91 96 100 104 108 109 107 106 106 105 101 95 90 86 82 77 75 82 81 75 72 68 63 69 64 59 53 49 44 39 36 31 18 10 21 26 14 17 16 18 14 13 10
183 191 195 191 188 190 190 191 188 182 176 174 181 182 187 183 154 152 148 165 158 153 158 155 153 153 151 147 131 127 131 123 116 114 107 105 102 106 107 108 108 109 107 100 100 101 99 100 102 103 105 102 96 91 86 81 79 81 78 77 84 82 77 72 67 65 65 58 52 46 41 35 33 30 22 8 18 24 13 7 5 12 14 4 5
193 189 189 191 190 195 197 197 190 186 182 182 184 180 185 173 163 155 142 145 149 148 160 155 157 156 150 141 130 128 124 118 117 112 107 104 109 103 105 105 106 117 118 118 109 105 104 102 100 103 105 103 98 93 89 86 79 73 77 80 77 74 78 75 66 57 53 54 52 45 33 28 23 20 18 13 6 4 8 8 356 4 358 2 10
195 194 185 191 194 196 200 193 191 182 183 179 191 181 174 164 158 156 146 145 146 144 159 151 154 150 147 128 127 130 128 126 118 115 113 122 110 113 114 118 125 115 114 117 119 109 105 100 93 91 90 92 87 77 75 80 82 80 73 69 72 73 60 51 48 52 44 37 40 35 29 21 13 8 4 6 3 351 353 2 348 341 355 9 356
195 194 191 189 195 198 188 191 182 182 181 184 188 181 166 157 151 162 157 143 145 141 150 149 146 144 137 123 127 126 119 119 121 118 123 115 121 124 128 127 119 129 136 125 126 126 114 107 105 90 81 78 72 65 55 60 70 78 73 63 59 59 63 51 31 26 36 30 22 22 21 12 4 359 355 353 354 348 344 350 343 340 351 359 354
193 189 192 192 194 194 180 179 178 179 181 185 183 160 166 160 144 143 147 148 149 147 150 150 146 139 111 114 112 106 102 110 120 133 134 128 129 134 131 129 138 137 131 137 127 126 129 120 114 113 91 84 91 89 56 50 51 59 68 64 53 45 44 44 33 16 15 23 16 16 15 8 357 353 347 345 346 341 330 326 329 331 350 349 14
188 186 189 190 193 186 175 175 178 181 181 185 178 166 163 156 146 133 116 117 142 138 137 142 141 120 100 98 105 104 107 124 138 138 135 134 134 134 144 140 139 138 131 133 136 144 144 145 156 144 119 99 87 73 53 32 23 39 39 50 47 34 30 25 26 15 8 18 13 12 12 4 354 351 346 342 343 337 331 324 327 333 350 340 5
188 186 186 190 187 182 178 175 182 188 188 189 181 180 165 153 144 140 132 109 101 123 128 129 112 87 89 81 78 87 109 126 138 146 143 143 148 158 153 148 144 138 133 124 134 134 139 138 137 132 125 101 32 29 16 358 341 349 31 18 18 22 20 16 15 10 10 15 7 5 7 0 355 349 344 341 337 332 325 323 327 328 331 327 332
192 184 189 188 187 182 180 182 187 197 199 196 176 175 159 151 141 140 141 133 129 137 133 130 125 104 86 89 82 79 97 136 157 162 160 160 164 171 158 159 149 145 141 149 144 142 141 142 135 135 132 119 139 104 350 330 340 344 18 9 359 1 10 11 9 8 11 8 2 3 5 359 349 346 340 338 334 328 322 323 328 325 319 317 321
187 186 189 188 184 184 187 184 189 198 198 186 168 160 148 147 146 138 151 149 148 160 152 147 147 150 148 142 121 118 103 145 176 177 179 178 182 181 172 171 166 158 155 169 159 157 148 146 152 132 109 122 82 51 18 248 116 9 9 4 354 348 4 3 6 5 3 4 0 3 2 352 343 339 337 333 329 324 324 323 320 315 314 311 310
184 182 186 191 192 187 188 185 191 193 188 181 178 177 163 160 163 157 149 134 137 167 172 226 162 144 143 145 166 171 164 185 184 186 190 194 194 195 186 186 182 175 171 177 168 170 159 157 151 133 70 282 295 17 17 345 36 3 19 9 356 2 4 2 4 359 358 0 357 356 353 342 336 334 331 329 324 324 324 319 314 314 314 310 303
184 183 189 193 192 196 193 190 191 193 187 177 189 185 165 166 172 164 153 151 165 177 198 231 169 144 163 215 158 206 189 208 196 185 193 200 205 206 194 200 195 181 186 193 182 177 177 164 171 142 312 315 292 310 244 24 45 27 27 12 23 27 14 9 4 360 357 356 350 348 344 337 334 334 330 327 324 327 327 323 317 313 312 307 305
183 186 194 191 196 197 187 178 186 190 185 187 189 179 176 175 173 168 176 166 168 170 190 206 200 279 166 135 142 207 240 137 174 178 187 203 207 211 204 209 205 196 202 204 191 191 188 186 178 226 263 264 257 190 117 72 50 20 37 40 44 40 25 16 10 4 355 351 346 344 340 337 336 334 329 326 331 333 331 328 325 320 314 311 308
182 187 196 196 198 192 180 177 173 173 180 190 190 169 174 179 180 181 185 185 168 168 179 199 221 233 294 318 327 302 169 143 173 182 175 213 199 203 207 209 213 208 212 206 202 190 183 197 184 199 208 236 105 115 92 74 51 49 17 48 33 43 37 19 11 4 355 348 345 342 340 338 336 333 330 333 338 336 331 328 326 322 320 317 313
182 188 197 197 190 177 179 183 178 177 175 182 178 182 183 185 179 189 193 177 166 177 187 184 190 229 222 299 303 291 142 146 202 130 182 187 213 198 207 204 205 218 211 210 197 167 176 191 163 176 123 124 109 105 134 88 77 76 56 45 35 32 39 29 14 5 355 347 345 343 339 337 335 334 334 340 339 335 330 326 324 322 320 317 315
183 190 199 194 179 175 178 180 181 180 178 187 184 184 181 181 184 194 188 182 185 196 191 182 190 198 194 208 193 148 157 293 183 215 253 182 188 198 205 192 199 211 218 201 179 166 154 184 164 146 132 118 124 114 82 75 63 56 53 33 31 22 23 28 18 3 354 344 344 342 337 336 337 337 341 345 340 334 331 329 326 323 321 321 321
191 193 197 192 175 178 178 180 182 180 185 189 187 181 184 179 183 191 197 196 198 206 198 195 201 204 170 201 196 185 180 198 202 212 238 252 206 179 189 179 207 196 174 162 164 165 155 150 126 126 123 118 117 103 86 68 63 58 47 25 25 20 19 21 14 358 348 346 344 340 336 337 337 339 343 342 339 335 333 329 326 325 324 324 323
194 198 196 185 178 177 181 183 181 178 188 190 180 175 182 189 191 195 196 200 198 205 213 209 203 211 197 183 194 176 200 199 197 195 208 257 269 191 180 178 194 178 151 160 154 143 142 138 145 138 120 123 117 108 80 71 56 44 43 21 22 19 10 13 5 350 346 347 346 342 337 337 338 340 343 342 339 335 331 329 328 327 328 326 324
189 192 194 179 179 180 184 182 177 172 182 178 183 189 186 189 191 197 202 207 202 203 211 218 211 213 207 206 207 201 209 213 208 203 224 209 217 214 182 195 196 155 151 139 132 138 140 135 134 123 119 118 112 97 77 72 71 56 53 20 15 9 5 1 354 341 341 345 346 342 339 340 341 342 343 342 337 334 332 330 331 331 330 327 325
191 191 191 182 175 180 179 176 172 174 177 178 180 187 176 179 180 194 204 207 208 203 209 210 209 218 211 214 221 220 225 237 236 209 218 243 242 245 183 150 150 126 127 125 134 141 135 125 117 114 115 110 110 84 78 75 79 42 4 48 360 359 359 351 348 338 334 344 344 342 343 345 345 344 345 342 338 336 334 333 333 333 329 329 328
194 195 191 174 176 174 176 176 170 173 168 171 170 169 168 179 185 192 194 194 200 202 207 209 204 213 212 212 223 223 230 231 237 222 226 249 244 215 114 158 177 145 148 158 153 135 120 127 125 116 118 117 102 81 53 46 49 35 347 66 2 353 348 346 344 344 348 350 344 341 343 347 347 345 345 341 338 336 335 334 332 331 331 329 327
195 199 170 175 181 174 167 170 168 163 162 166 163 169 170 182 177 188 188 191 188 199 212 209 208 218 221 210 212 222 227 210 222 214 206 207 217 212 143 138 148 153 155 183 159 160 147 135 127 120 116 113 99 71 34 28 52 39 348 319 16 343 338 337 343 349 355 351 342 341 342 343 342 341 340 337 334 333 332 332 332 333 331 329 326
202 185 167 173 165 165 170 167 162 158 158 159 160 159 163 165 166 167 165 164 180 194 206 201 206 209 211 219 210 219 219 201 209 223 217 216 220 187 159 153 153 165 175 185 174 219 150 130 126 121 110 99 99 55 23 25 42 15 320 316 348 311 317 343 348 351 352 347 339 337 337 335 335 335 333 330 331 332 334 334 334 332 331 328 325
193 166 171 172 171 170 169 168 158 159 162 162 162 162 160 160 152 160 162 149 172 190 198 198 210 199 202 198 206 205 179 184 206 207 216 216 218 179 188 188 174 179 187 189 196 185 170 169 130 103 114 117 94 66 14 280 29 326 267 344 352 3 13 348 347 346 347 341 337 335 334 331 331 333 332 331 334 336 335 335 333 331 329 325 323
174 168 168 175 170 167 165 158 159 158 158 161 162 157 156 159 160 161 163 160 176 186 181 197 181 177 183 183 198 161 159 150 167 173 183 197 211 204 207 209 204 204 182 200 197 191 166 199 199 128 118 121 105 92 24 358 21 323 356 353 355 6 355 333 337 341 340 336 335 331 330 333 335 336 335 334 334 335 334 331 330 329 325 323 324
173 166 168 169 168 163 158 156 157 159 160 160 161 155 155 153 155 162 152 155 166 161 174 179 162 167 161 166 163 154 136 156 136 134 153 180 189 201 213 223 224 228 203 210 180 180 148 142 204 133 135 114 122 114 33 304 28 300 0 360 359 7 328 306 337 341 340 337 332 331 330 330 329 331 331 329 330 331 330 328 329 326 323 323 324
168 166 168 168 165 167 160 156 157 160 159 157 155 156 159 150 155 154 153 166 170 168 159 162 157 165 161 156 151 136 140 128 125 123 126 161 174 180 193 205 221 240 218 217 197 141 157 155 124 101 108 112 96 128 195 298 37 314 351 359 2 350 296 339 341 340 339 336 333 330 332 329 324 321 321 322 325 328 327 327 326 322 320 320 318
174 169 171 170 171 167 166 158 157 159 161 158 161 156 158 158 158 163 162 170 173 167 159 162 159 170 159 156 154 146 143 138 131 127 128 125 151 170 175 185 186 212 212 209 230 140 160 127 131 132 138 130 148 194 95 355 108 273 356 355 359 321 330 353 344 327 335 336 330 328 327 325 318 317 319 322 325 325 326 325 320 315 315 312 315
167 171 174 174 174 169 165 162 163 163 163 160 161 158 160 156 159 159 159 173 174 163 159 158 165 167 164 155 148 143 150 145 138 138 134 131 137 143 155 170 173 179 191 189 175 128 131 124 140 141 134 183 152 33 30 8 360 357 342 1 356 352 348 341 344 346 337 334 326 322 322 321 320 320 322 322 320 319 318 315 312 311 310 312 314
173 174 175 171 171 169 164 163 162 165 166 162 159 161 158 154 155 155 166 173 175 165 164 164 164 165 159 153 149 148 155 145 144 146 144 146 144 140 145 166 172 169 181 173 151 150 145 156 162 151 149 211 165 110 59 6 358 345 342 347 354 357 354 344 341 356 337 324 324 320 318 319 318 317 317 318 316 313 311 310 310 310 309 310 310
174 175 174 171 171 169 165 162 163 165 166 160 160 160 157 161 163 167 171 175 175 170 172 167 166 161 161 155 153 152 153 146 144 132 136 137 132 127 128 140 140 144 156 157 147 142 148 147 154 161 157 158 147 99 72 39 341 334 329 346 349 348 350 339 334 335 330 321 316 313 313 315 315 314 313 310 309 308 308 308 308 308 310 311 311
173 175 170 170 167 168 166 165 165 164 162 159 160 165 165 167 168 171 173 177 178 176 174 168 164 169 168 159 157 159 159 149 146 141 138 133 133 125 121 116 120 122 125 130 142 140 150 144 170 168 150 156 158 153 99 329 4 344 339 334 333 351 348 345 334 329 333 316 310 306 305 303 304 302 301 301 303 308 309 309 310 310 310 310 310
175 168 168 169 169 171 168 170 168 166 165 161 161 164 165 170 171 168 173 176 177 178 173 170 168 174 171 168 161 163 162 151 147 149 144 140 134 131 124 121 119 118 121 129 128 138 147 145 141 134 146 156 128 120 38 354 1 333 341 345 345 349 349 336 327 325 300 284 280 278 282 287 283 291 302 304 309 311 310 308 306 307 307 308 310
169 171 170 173 175 177 175 172 168 165 162 164 165 165 167 168 170 167 169 171 174 175 173 173 175 175 174 168 164 165 164 159 156 146 147 145 137 133 129 126 125 123 119 118 126 135 136 134 144 145 168 161 163 147 69 8 333 337 345 344 339 350 345 347 345 327 325 324 329 333 320 314 328 318 305 307 306 303 302 303 304 305 307 310 312
170 171 177 176 177 177 174 168 167 162 160 160 161 161 165 168 170 167 164 167 169 169 176 176 175 175 174 167 164 166 169 163 154 155 151 148 148 144 138 132 131 131 126 123 130 132 131 132 136 147 149 150 210 175 142 239 256 289 329 336 348 3 350 341 335 336 329 326 322 302 312 303 294 297 307 297 296 296 302 307 305 303 306 310 314
176 176 176 177 174 176 171 170 165 157 152 156 158 162 164 165 166 166 165 167 171 170 172 176 173 176 174 168 168 171 173 163 160 155 151 153 155 150 144 143 143 138 131 132 137 139 144 155 161 162 165 157 172 197 206 234 230 200 18 333 335 343 345 335 334 336 338 334 334 333 330 329 331 316 304 299 298 309 307 303 305 300 302 315 319
174 178 176 175 171 174 168 166 162 157 156 160 160 162 163 166 166 166 169 172 170 171 173 173 174 174 173 168 169 173 166 150 149 152 162 159 162 158 155 157 156 147 141 147 148 153 161 164 158 161 166 180 186 185 201 208 348 6 344 303 299 328 333 331 348 351 344 329 321 320 323 330 327 327 322 323 328 318 309 297 295 308 324 319 315
170 171 172 173 173 172 167 167 163 160 160 161 167 166 164 163 166 165 167 172 173 171 171 169 172 176 173 168 161 151 145 142 147 153 153 165 170 165 164 167 164 157 154 154 160 168 170 174 174 174 183 188 178 190 197 200 272 273 267 277 315 339 320 324 323 351 345 333 324 323 325 333 321 319 326 327 327 317 318 318 330 321 313 311 312
170 165 167 171 176 173 168 166 168 169 167 169 163 165 166 161 161 165 168 171 174 172 172 172 173 171 165 165 162 157 153 152 154 158 160 165 161 143 151 163 168 168 162 162 169 177 181 185 174 187 194 182 182 185 204 205 227 270 312 312 313 319 336 336 338 327 143 336 325 315 315 329 323 320 322 323 326 323 319 317 314 309 307 311 312
167 165 170 175 175 171 168 168 167 170 172 162 163 166 167 166 165 162 166 168 172 175 178 176 170 165 168 167 168 166 175 170 161 161 161 157 149 147 153 154 167 330 348 117 176 180 193 187 181 194 193 191 181 192 193 215 226 244 248 277 297 319 328 332 331 333 350 342 315 312 317 329 330 324 320 322 321 319 312 300 297 305 312 310 311
157 170 177 172 176 174 170 170 171 171 168 159 165 167 169 170 168 162 170 170 172 177 176 177 173 171 169 168 166 171 162 153 161 168 163 157 153 158 161 159 166 194 212 4 349 323 195 200 194 193 201 189 195 196 200 232 280 279 287 288 329 314 310 312 330 323 321 325 295 319 325 322 330 331 323 327 328 320 307 300 307 309 308 308 310
165 174 180 178 175 174 173 171 170 173 167 163 167 168 169 169 168 169 168 168 173 175 176 176 173 173 172 172 172 172 165 172 178 169 168 160 159 159 164 180 189 193 204 210 218 278 286 225 209 205 196 200 212 189 176 213 245 268 289 299 317 311 313 314 308 297 293 262 291 318 304 334 337 322 320 328 327 318 308 306 299 299 304 309 311
173 177 179 181 178 176 175 173 171 171 169 162 166 168 168 167 168 172 164 164 170 173 177 176 174 175 175 175 177 175 170 176 174 171 168 164 160 161 169 182 202 202 206 203 204 206 203 219 222 223 200 207 232 235 220 233 250 269 287 296 302 296 291 284 268 260 291 189 248 276 320 326 331 320 320 324 324 317 315 305 297 297 304 310 311
177 168 179 185 177 176 172 171 172 173 160 166 167 168 166 166 164 171 164 168 172 175 176 175 175 179 176 173 175 174 171 175 159 165 165 155 159 167 178 190 205 210 216 137 41 274 232 217 216 226 232 19 355 306 322 304 273 261 265 260 257 254 265 291 317 332 326 354 181 297 314 323 325 318 318 320 320 316 314 309 310 305 307 306 304
179 176 182 186 182 173 164 166 167 157 153 174 167 166 164 163 165 171 164 169 174 177 178 173 176 174 172 175 178 173 170 176 157 162 152 158 170 176 183 193 203 205 214 168 159 204 255 286 300 310 309 301 278 272 265 256 257 290 284 267 254 264 293 308 318 325 329 323 258 282 314 307 329 325 316 315 317 305 306 316 318 315 305 296 295
184 183 179 181 183 177 171 168 160 174 183 174 168 166 164 168 173 169 167 171 172 174 170 172 176 177 176 173 177 175 173 173 156 166 161 168 178 180 188 193 194 202 207 181 177 174 163 220 244 258 264 267 267 267 262 245 215 216 232 265 324 310 300 310 315 323 320 314 36 45 308 319 325 326 318 311 303 306 314 317 316 309 304 307 316
186 181 171 179 171 161 163 170 176 173 143 171 174 167 168 173 176 161 166 168 168 171 171 172 175 179 177 181 180 177 182 157 161 168 173 181 186 185 188 192 195 202 207 190 192 196 196 210 221 220 239 232 239 246 241 202 200 208 227 253 277 287 304 313 313 315 317 329 61 124 317 322 323 323 322 320 319 312 316 322 315 316 318 322 328